Temperature
20 20 20 20 20 20 20 20 20 20 20 20 20 20 20 20 20 20 20 20 20 20 20 20 20 20 20 19 19 19 19 19 19 19 19 19 19 18 19 19 19 19 19
20 20 20 20 20 20 20 20 20 20 20 20 20 20 20 20 20 20 20 20 20 20 19 19 19 19 19 19 19 19 19 19 19 19 19 19 19 18 18 18 18 18 19
20 20 20 20 20 20 20 20 20 20 20 20 20 20 20 20 20 20 20 20 20 19 19 19 19 19 19 19 19 19 19 19 19 19 19 19 19 18 18 18 18 18 18
20 20 20 20 20 20 20 20 20 20 20 20 20 20 20 20 20 20 20 19 19 19 19 19 19 19 19 19 19 19 19 19 19 19 19 19 19 18 18 18 18 18 18
20 20 20 20 20 20 20 20 20 20 20 20 20 20 20 20 20 20 19 19 19 19 19 19 19 19 19 19 19 19 18 18 18 18 19 19 19 18 18 18 18 18 18
20 20 20 19 19 19 19 19 19 20 20 20 20 20 20 19 19 19 19 19 19 19 19 19 19 18 18 18 18 18 18 18 18 18 18 18 18 18 18 18 18 18 18
19 19 19 19 19 19 19 19 19 19 19 19 19 19 19 19 19 19 19 19 19 19 19 19 19 18 18 18 18 18 18 18 18 18 18 18 18 18 18 18 18 18 18
19 18 18 19 19 19 19 19 19 19 19 19 19 19 19 19 19 19 19 19 19 19 19 19 18 18 18 18 18 18 18 18 18 18 18 18 18 18 18 18 18 18 18
18 18 18 18 18 18 18 18 18 19 19 19 19 19 19 19 19 19 19 19 19 19 19 19 18 18 18 18 18 18 18 18 18 18 18 18 18 18 18 18 18 18 18
18 18 18 18 18 18 18 18 18 18 18 18 18 19 19 19 19 19 19 19 19 19 19 19 18 18 18 18 18 18 18 18 18 18 18 18 18 18 18 18 18 18 18
17 17 17 17 17 18 18 18 18 18 18 18 18 18 18 18 18 18 19 19 19 19 19 18 18 18 18 18 18 18 18 18 18 18 18 18 18 18 18 18 18 18 18
17 17 17 17 17 17 17 18 18 18 18 18 18 18 18 18 18 18 18 18 18 18 18 18 18 18 18 18 18 18 18 18 18 18 18 18 18 18 18 18 18 18 18
16 16 16 16 17 17 17 17 17 17 18 18 18 18 18 18 18 18 18 18 18 18 18 18 18 18 18 18 18 18 18 18 18 18 18 18 18 18 18 18 18 18 18
16 16 16 16 16 16 16 17 17 17 17 17 17 17 17 17 17 18 18 18 18 18 18 18 18 18 18 18 18 18 18 18 18 18 18 18 18 18 18 18 18 18 18
15 15 15 15 15 15 16 16 16 16 17 17 17 17 17 17 17 17 17 18 18 18 18 18 18 18 18 18 18 18 18 18 18 18 18 18 18 18 18 18 18 18 18
15 15 15 15 15 15 15 15 15 16 16 16 17 17 17 17 17 17 17 17 17 17 18 18 18 18 18 18 18 18 18 18 18 18 18 18 18 18 17 17 18 17 17
14 14 14 14 14 14 14 15 15 15 15 16 16 16 16 17 17 17 17 17 17 17 17 17 17 18 18 18 18 18 18 18 18 18 18 18 18 18 17 17 17 17 17
14 14 14 14 14 14 14 14 14 15 15 15 15 16 16 16 16 17 17 17 17 17 17 17 17 17 17 18 18 18 18 18 18 18 18 18 18 18 18 17 17 17 17
14 13 13 13 13 13 14 14 14 14 14 14 15 15 15 16 16 16 17 17 17 17 17 17 17 17 17 17 18 18 18 18 18 18 18 18 18 18 18 17 17 17 17
13 13 13 13 13 13 13 13 14 14 14 14 14 15 15 15 15 16 16 16 17 17 17 17 17 17 17 17 17 18 18 18 18 18 18 18 18 18 18 17 17 17 17
13 13 13 13 13 13 13 13 13 13 14 14 14 14 14 15 15 15 16 16 16 16 17 17 17 17 17 17 17 17 17 18 18 18 18 18 18 18 18 17 17 17 17
13 13 13 13 12 12 12 12 12 13 13 13 13 13 14 14 14 15 15 15 16 16 16 16 16 17 16 16 16 17 17 17 18 18 18 18 18 18 18 18 17 17 17
13 13 13 12 12 12 12 12 12 12 13 13 13 13 13 13 14 14 15 15 15 16 16 16 16 16 16 16 16 16 17 17 17 18 18 18 18 18 18 18 18 17 17
13 13 12 12 12 12 12 12 12 12 12 12 12 13 13 13 13 14 14 14 15 15 16 16 16 16 16 16 16 16 16 17 17 17 18 18 18 18 18 18 18 17 17
13 13 12 12 12 12 12 12 11 11 11 12 12 12 13 13 13 13 14 14 14 15 15 15 16 16 16 16 16 16 16 16 16 17 17 18 18 18 18 18 18 18 17
13 12 12 12 12 12 11 11 11 11 11 12 12 12 12 13 13 13 13 14 14 14 15 15 15 15 15 16 16 16 16 16 16 16 17 17 18 18 18 18 18 18 17
Wind_Speed
4 6 11 11 11 11 11 11 11 11 11 11 11 11 10 10 9 9 8 8 7 7 6 7 7 8 8 8 8 8 8 9 9 9 9 8 8 8 8 9 8 8 9
6 8 11 11 11 11 11 10 10 9 9 9 9 9 9 9 9 8 7 7 7 6 6 6 6 7 7 7 7 7 7 7 8 8 8 8 8 8 8 8 7 7 8
6 8 11 11 11 11 10 10 9 9 9 8 8 8 8 8 8 7 7 6 6 6 6 5 6 6 6 6 6 6 5 6 6 7 6 5 6 7 7 7 7 8 7
7 8 9 10 10 10 10 9 9 8 8 8 8 8 8 7 7 7 6 6 6 5 5 5 5 5 5 5 5 5 4 4 5 6 5 5 5 7 7 7 7 7 7
6 7 8 10 9 9 9 9 8 8 8 8 8 8 7 7 6 6 6 6 5 5 4 4 4 4 4 4 3 4 4 4 6 6 5 5 4 6 6 6 7 7 6
4 5 7 9 9 9 9 9 9 9 9 9 8 8 7 7 7 6 6 6 5 5 4 4 3 3 3 2 2 3 3 5 6 6 5 4 3 5 6 6 6 6 6
1 3 5 7 8 9 10 10 10 10 9 9 9 9 8 8 7 7 6 6 5 5 4 4 3 3 2 1 1 2 2 5 6 4 3 3 3 5 5 6 6 6 6
4 3 2 3 5 8 9 10 11 11 11 10 10 10 9 9 8 8 7 7 6 6 5 4 4 4 3 2 1 1 2 3 5 3 3 2 3 4 5 6 6 6 7
8 7 7 6 5 5 7 9 11 12 12 12 11 11 10 10 10 9 8 8 7 7 6 6 5 5 4 3 2 1 1 2 5 3 3 3 4 4 5 6 6 7 7
8 7 7 8 8 8 7 7 10 12 13 13 13 12 12 12 11 11 10 9 9 8 8 7 7 6 5 4 3 2 1 2 3 3 3 3 4 4 5 6 6 7 7
8 7 6 7 8 9 8 8 9 10 11 12 13 13 13 12 11 11 11 11 11 10 9 9 8 7 6 4 4 3 1 2 2 3 4 4 5 5 6 6 7 7 7
7 6 5 5 6 7 7 8 8 7 7 8 9 11 11 11 11 11 11 13 13 12 11 10 9 8 6 3 3 2 2 2 3 3 5 6 6 6 6 6 6 7 7
4 5 6 5 6 6 5 6 6 6 6 6 7 8 9 9 9 10 8 10 11 12 10 9 8 6 4 4 3 3 3 3 4 4 5 6 7 7 7 7 7 7 7
5 6 6 5 5 6 6 5 5 5 5 5 5 6 6 5 5 6 7 8 8 8 7 7 6 6 5 6 5 4 4 5 5 6 6 7 8 8 8 8 8 8 7
6 7 7 6 6 5 5 5 5 4 5 6 6 5 5 4 5 5 5 7 8 8 7 6 5 5 5 5 5 5 5 7 7 7 7 8 8 9 9 9 9 8 8
6 7 7 7 5 5 4 4 4 6 7 6 6 6 7 6 5 4 5 4 6 8 8 7 6 4 4 4 4 6 7 7 8 8 8 9 10 10 10 10 10 10 9
6 7 7 8 6 6 6 5 5 7 7 5 6 7 7 7 6 4 5 5 5 8 7 6 5 4 4 4 5 5 5 7 7 8 9 9 9 10 11 11 11 10 10
6 7 7 8 8 8 6 6 5 6 6 5 7 7 8 8 8 5 5 5 6 6 4 4 4 3 4 4 4 4 4 4 6 8 9 9 9 9 11 12 12 11 11
6 7 7 8 8 8 8 6 6 6 5 6 7 6 7 8 7 5 5 5 5 4 5 5 4 4 4 4 4 4 4 4 5 6 7 9 10 10 10 11 12 12 11
7 7 7 8 8 8 7 6 5 5 4 5 5 6 7 7 6 5 5 5 4 4 5 5 5 4 3 3 3 3 3 3 4 5 6 7 9 10 10 10 10 11 12
7 8 8 8 8 7 5 5 5 5 5 5 4 6 7 7 6 4 4 4 5 6 6 7 5 5 4 3 2 0 1 1 3 4 4 5 6 9 10 10 10 10 10
7 8 8 8 8 7 5 5 4 5 5 5 4 5 6 6 6 4 5 5 5 5 7 7 6 5 4 5 4 2 1 1 2 4 4 6 6 6 8 10 11 11 10
8 8 8 8 8 7 7 5 5 4 4 4 4 4 5 6 6 5 5 5 5 6 6 7 8 8 6 5 5 4 4 5 3 2 4 5 6 6 6 8 10 12 12
8 8 8 8 8 7 7 6 6 5 5 5 5 5 7 6 6 6 5 5 6 5 6 7 8 7 7 6 5 4 3 3 4 2 1 2 5 6 7 7 8 11 13
7 7 7 8 7 7 7 7 6 6 5 6 6 7 6 5 5 5 5 5 5 5 7 7 7 8 7 7 6 4 3 2 2 3 3 2 2 3 5 7 6 9 12
7 7 7 7 7 8 8 8 7 8 8 8 8 7 6 5 4 5 5 4 5 5 6 7 7 8 8 7 6 5 5 4 4 4 3 3 3 3 3 4 5 7 11
Wind_Direction
183 181 165 158 156 153 150 146 143 139 136 134 134 133 132 131 130 130 128 125 121 118 117 114 110 104 99 94 89 88 90 91 90 89 87 88 93 100 102 99 96 95 99
157 169 167 165 163 162 160 157 153 150 147 144 143 142 140 139 138 137 136 133 129 126 123 121 117 110 102 96 93 91 92 96 95 93 88 83 92 102 104 104 103 105 103
141 159 166 170 170 169 170 168 164 161 160 159 156 153 150 148 146 146 145 142 138 136 134 131 127 119 109 99 94 90 89 99 104 101 90 76 88 103 106 108 110 108 108
146 153 164 172 173 176 176 175 172 170 170 169 167 165 162 159 157 156 155 154 151 148 144 140 135 130 117 105 96 89 86 95 111 109 90 76 83 104 108 112 114 114 114
148 156 170 176 176 179 181 180 180 180 180 179 177 175 172 171 170 170 168 165 164 162 159 152 145 136 126 113 98 86 84 94 113 111 101 88 89 107 111 114 116 118 121
146 163 182 184 184 187 189 191 191 192 191 190 188 187 187 187 188 185 181 179 178 176 176 169 167 159 145 126 109 89 83 103 114 116 112 105 103 114 113 116 117 123 123
130 175 199 201 200 201 201 202 202 202 202 202 201 200 200 201 201 200 200 197 193 192 194 192 195 193 184 159 117 89 89 118 129 127 128 128 130 124 119 118 118 117 118
45 49 12 266 237 227 221 217 215 212 212 211 211 212 212 212 211 212 214 212 208 208 209 210 214 218 221 219 202 95 100 129 144 146 158 173 162 136 120 117 115 111 111
40 36 15 1 333 290 260 244 234 228 224 222 221 221 222 221 220 221 221 223 222 220 221 222 223 230 237 242 248 250 154 134 150 175 187 199 180 150 134 126 120 119 116
38 27 15 4 358 347 324 295 266 250 240 234 231 229 228 229 229 228 226 228 229 229 230 230 230 234 243 250 252 257 211 148 165 190 204 209 194 167 148 135 124 120 118
30 17 9 1 355 348 337 322 302 281 265 251 245 242 235 233 235 235 232 232 235 236 236 236 235 236 240 250 256 254 185 171 191 209 218 221 201 179 157 140 130 125 123
11 360 359 350 344 341 336 331 327 312 294 274 258 250 240 231 230 234 237 240 240 240 240 239 237 237 236 231 256 258 194 213 222 231 228 226 208 187 165 150 141 135 130
349 346 344 336 337 335 327 329 326 319 312 293 275 263 250 238 233 234 235 245 249 247 243 242 241 230 213 211 221 225 226 229 234 236 235 225 211 193 177 163 155 148 142
350 343 336 333 333 332 331 324 315 319 313 305 296 285 268 247 231 227 228 231 236 239 232 225 218 217 214 217 220 227 233 231 233 234 236 227 214 200 188 176 167 161 155
347 339 335 331 330 330 330 323 326 314 307 303 298 294 276 258 243 231 233 229 230 227 221 216 210 210 212 216 221 226 231 233 233 230 231 230 218 206 197 187 178 172 168
338 332 328 328 328 331 322 311 305 306 302 301 297 287 277 268 262 240 237 233 232 227 220 215 207 205 210 207 220 226 230 229 227 223 224 227 221 210 203 196 188 182 177
326 327 328 326 339 332 320 310 310 302 303 298 292 288 281 268 259 253 240 234 230 230 219 211 206 201 208 212 223 227 229 224 218 217 215 215 216 213 207 202 195 190 185
327 327 327 336 335 329 323 313 306 301 297 292 290 288 283 275 262 248 241 238 230 221 210 202 201 201 212 214 220 226 223 214 213 213 208 206 203 205 208 206 199 197 192
322 322 324 328 329 326 322 315 307 302 296 293 292 287 283 276 267 256 241 235 228 212 207 214 202 195 205 216 222 223 221 215 209 207 202 202 199 197 201 207 204 200 198
324 325 324 327 329 327 324 321 316 313 306 303 298 292 288 282 274 260 249 236 222 216 212 208 204 194 200 206 231 237 232 226 207 203 204 199 198 198 198 201 203 205 204
330 332 327 328 327 334 334 331 325 320 313 309 300 299 297 292 283 264 256 242 220 218 219 207 198 195 198 170 143 214 320 267 225 216 200 193 198 200 197 200 200 200 205
322 325 325 327 325 328 323 310 294 292 294 289 294 306 301 296 289 276 251 245 231 223 222 210 194 184 191 175 162 144 193 290 265 225 201 204 205 193 199 203 201 200 200
321 323 327 324 324 324 326 322 319 313 311 317 318 312 305 304 294 277 261 245 235 225 225 217 203 191 191 189 181 165 170 204 215 246 219 209 196 194 201 198 202 203 200
314 318 323 325 325 327 332 333 334 328 318 304 303 297 299 298 296 288 270 250 238 228 228 224 212 204 188 190 189 193 183 163 167 194 259 220 201 200 200 201 203 203 201
314 319 323 329 330 334 338 336 332 326 312 307 308 305 306 300 296 296 283 260 245 236 231 226 214 206 199 192 180 171 176 173 181 166 191 201 201 209 200 199 196 199 202
319 324 330 335 332 337 341 341 339 331 325 326 326 323 317 308 301 303 299 277 257 245 238 228 217 210 208 201 189 175 171 172 188 178 177 182 194 207 196 195 197 197 199
Height
1542 1544 1546 1547 1549 1550 1552 1553 1554 1555 1556 1557 1557 1558 1558 1558 1558 1559 1559 1559 1559 1559 1559 1559 1559 1559 1559 1559 1559 1558 1558 1558 1557 1557 1557 1557 1557 1557 1556 1557 1557 1557 1557
1543 1544 1547 1548 1550 1551 1552 1554 1555 1556 1556 1557 1557 1558 1558 1558 1558 1559 1559 1559 1559 1559 1559 1560 1560 1560 1560 1560 1559 1559 1559 1559 1558 1558 1558 1558 1557 1557 1557 1557 1558 1558 1558
1544 1546 1547 1549 1551 1552 1553 1554 1555 1556 1556 1557 1557 1558 1558 1558 1558 1558 1559 1559 1559 1559 1559 1560 1560 1560 1560 1560 1560 1560 1560 1560 1559 1559 1559 1558 1558 1558 1558 1558 1558 1559 1559
1545 1547 1548 1550 1551 1552 1553 1554 1555 1556 1556 1556 1557 1557 1557 1558 1558 1558 1558 1558 1559 1559 1559 1559 1560 1560 1560 1560 1560 1560 1560 1560 1560 1560 1559 1559 1559 1559 1559 1559 1559 1559 1560
1547 1548 1549 1550 1552 1553 1553 1554 1555 1555 1555 1556 1556 1556 1557 1557 1557 1557 1557 1558 1558 1558 1559 1559 1559 1559 1560 1560 1560 1561 1561 1561 1560 1560 1560 1560 1560 1560 1560 1560 1560 1560 1561
1548 1549 1550 1551 1552 1553 1553 1554 1554 1554 1555 1555 1555 1556 1556 1556 1556 1557 1557 1557 1557 1558 1558 1558 1558 1559 1559 1560 1560 1561 1561 1561 1561 1561 1561 1560 1560 1560 1561 1561 1561 1561 1562
1549 1550 1551 1551 1552 1552 1553 1553 1553 1554 1554 1554 1554 1555 1555 1555 1555 1555 1556 1556 1556 1557 1557 1557 1558 1558 1559 1559 1560 1560 1561 1561 1561 1561 1561 1561 1561 1561 1561 1561 1562 1562 1562
1549 1550 1550 1551 1551 1552 1552 1552 1553 1553 1553 1553 1553 1553 1554 1554 1554 1554 1555 1555 1555 1555 1556 1556 1557 1557 1558 1559 1559 1560 1560 1561 1561 1561 1561 1561 1561 1561 1562 1562 1562 1563 1563
1549 1549 1550 1550 1550 1550 1550 1551 1551 1551 1551 1551 1551 1552 1552 1552 1553 1553 1553 1554 1554 1554 1554 1555 1555 1556 1557 1558 1558 1559 1559 1560 1561 1561 1561 1561 1561 1561 1562 1562 1562 1563 1564
1549 1549 1549 1548 1549 1549 1548 1548 1549 1549 1549 1549 1549 1550 1550 1550 1551 1551 1552 1552 1552 1553 1553 1553 1554 1555 1555 1556 1557 1558 1558 1559 1560 1561 1561 1561 1561 1561 1562 1562 1563 1563 1564
1549 1549 1548 1547 1546 1546 1546 1546 1546 1546 1546 1546 1547 1547 1548 1548 1548 1549 1549 1550 1551 1551 1551 1552 1552 1553 1554 1555 1556 1556 1557 1558 1559 1560 1561 1561 1561 1561 1562 1562 1563 1564 1564
1549 1548 1547 1547 1545 1544 1544 1543 1543 1542 1542 1543 1543 1544 1545 1545 1546 1546 1547 1548 1548 1549 1550 1550 1551 1551 1552 1553 1554 1555 1556 1558 1559 1560 1560 1560 1560 1561 1561 1562 1563 1564 1565
1550 1548 1547 1545 1544 1543 1541 1540 1540 1539 1539 1539 1540 1540 1541 1542 1542 1543 1544 1545 1546 1547 1548 1548 1549 1550 1551 1552 1553 1554 1555 1556 1558 1559 1559 1560 1560 1560 1561 1562 1563 1564 1565
1550 1548 1546 1544 1542 1540 1539 1538 1537 1536 1535 1535 1536 1537 1537 1538 1539 1540 1541 1542 1543 1544 1545 1546 1547 1548 1549 1550 1551 1552 1553 1555 1556 1558 1559 1559 1560 1560 1561 1562 1563 1564 1565
1549 1546 1544 1542 1540 1538 1536 1534 1533 1532 1532 1532 1532 1532 1533 1534 1535 1536 1537 1539 1540 1542 1542 1543 1545 1545 1546 1548 1549 1550 1552 1554 1555 1556 1558 1558 1559 1559 1560 1561 1562 1563 1565
1547 1545 1542 1540 1537 1535 1533 1531 1530 1528 1528 1528 1528 1528 1529 1530 1531 1532 1533 1535 1536 1538 1539 1541 1542 1543 1544 1546 1547 1549 1550 1552 1554 1555 1556 1557 1558 1559 1559 1561 1562 1563 1564
1546 1543 1540 1538 1535 1532 1530 1528 1527 1525 1524 1524 1524 1524 1525 1526 1526 1527 1529 1530 1532 1534 1536 1537 1539 1540 1542 1543 1545 1547 1549 1550 1552 1553 1555 1556 1557 1558 1559 1560 1561 1562 1563
1545 1542 1538 1535 1532 1529 1527 1525 1523 1522 1520 1520 1520 1520 1520 1521 1522 1523 1524 1525 1528 1529 1531 1533 1535 1537 1539 1540 1542 1544 1546 1548 1550 1552 1553 1554 1556 1557 1558 1559 1560 1561 1563
1543 1540 1536 1533 1530 1527 1524 1521 1519 1518 1517 1516 1516 1516 1516 1516 1517 1518 1519 1521 1523 1524 1526 1529 1531 1533 1535 1537 1540 1542 1544 1545 1547 1549 1551 1552 1554 1555 1556 1557 1559 1560 1561
1542 1539 1535 1531 1528 1525 1522 1519 1517 1515 1513 1512 1512 1511 1511 1512 1513 1513 1514 1516 1518 1520 1522 1524 1526 1529 1531 1534 1536 1538 1540 1542 1544 1546 1548 1550 1552 1554 1555 1556 1557 1559 1560
1541 1537 1533 1530 1526 1523 1519 1516 1514 1512 1510 1509 1508 1508 1508 1508 1508 1509 1509 1511 1513 1514 1517 1519 1521 1524 1526 1530 1532 1534 1536 1538 1541 1543 1545 1547 1549 1551 1553 1555 1556 1557 1559
1540 1536 1532 1529 1525 1522 1518 1515 1512 1509 1507 1506 1505 1504 1504 1504 1504 1504 1505 1506 1508 1510 1511 1514 1516 1518 1521 1524 1527 1530 1532 1535 1536 1539 1541 1544 1546 1549 1551 1552 1554 1556 1557
1539 1535 1532 1528 1524 1521 1517 1514 1511 1508 1505 1504 1502 1501 1500 1500 1500 1500 1500 1501 1503 1504 1506 1508 1511 1513 1515 1519 1522 1525 1527 1529 1532 1534 1536 1540 1542 1545 1548 1550 1552 1554 1555
1538 1535 1531 1527 1524 1520 1517 1513 1510 1506 1504 1501 1499 1498 1497 1496 1495 1495 1496 1496 1498 1499 1501 1503 1505 1507 1510 1513 1516 1519 1523 1525 1527 1529 1532 1535 1538 1541 1544 1547 1549 1551 1553
1537 1534 1531 1527 1524 1520 1516 1513 1509 1506 1503 1500 1498 1495 1494 1493 1492 1492 1491 1492 1493 1494 1496 1497 1499 1502 1504 1507 1510 1513 1517 1520 1523 1524 1526 1530 1533 1536 1539 1543 1545 1548 1551
1537 1534 1530 1527 1523 1519 1516 1512 1509 1505 1502 1499 1496 1494 1492 1490 1489 1488 1488 1488 1488 1489 1490 1492 1494 1496 1499 1501 1504 1507 1510 1513 1517 1520 1522 1524 1527 1531 1534 1538 1541 1544 1547